Time,TemperatureF,DewpointF,PressureIn,WindDirection,WindDirectionDegrees,WindSpeedMPH,WindSpeedGustMPH,Humidity,HourlyPrecipIn,Conditions,Clouds,dailyrainin,SoftwareType,DateUTC
2013-03-06 00:00:00,43.7,32.3,29.46,SW,216,13.2,13.2,64,0.00,,OVC,0.00,VWS V14.00,2013-03-06 08:00:00,
2013-03-06 00:05:00,43.7,32.3,29.46,SE,135,6.3,15.4,64,0.00,,OVC,0.00,VWS V14.00,2013-03-06 08:05:00,
2013-03-06 00:10:00,44.1,32.3,29.46,SE,139,15.0,16.3,63,0.00,,OVC,0.00,VWS V14.00,2013-03-06 08:10:00,
2013-03-06 00:15:00,44.1,31.9,29.46,South,180,8.3,18.8,62,0.00,,OVC,0.00,VWS V14.00,2013-03-06 08:15:00,
2013-03-06 00:20:00,44.1,31.5,29.46,ESE,119,16.3,16.3,61,0.00,,OVC,0.00,VWS V14.00,2013-03-06 08:20:00,
2013-03-06 00:25:00,44.1,31.1,29.46,ESE,116,12.8,17.4,60,0.00,,OVC,0.00,VWS V14.00,2013-03-06 08:25:00,
2013-03-06 00:30:00,44.1,31.1,29.46,SE,139,13.6,17.0,60,0.00,,OVC,0.00,VWS V14.00,2013-03-06 08:30:00,
2013-03-06 00:35:00,44.1,31.1,29.46,ESE,106,11.0,17.0,60,0.00,,OVC,0.00,VWS V14.00,2013-03-06 08:35:00,
2013-03-06 00:40:00,43.9,30.9,29.46,SE,133,15.4,15.4,60,0.00,,OVC,0.00,VWS V14.00,2013-03-06 08:40:00,
2013-03-06 00:45:00,44.1,31.1,29.46,South,175,6.3,15.4,60,0.00,,OVC,0.00,VWS V14.00,2013-03-06 08:45:00,
2013-03-06 00:50:00,44.1,30.7,29.46,East,91,19.2,19.2,59,0.00,,OVC,0.00,VWS V14.00,2013-03-06 08:50:00,
2013-03-06 00:55:00,44.1,30.2,29.46,SSE,157,7.6,7.6,58,0.00,,OVC,0.00,VWS V14.00,2013-03-06 08:55:00,
2013-03-06 01:00:00,44.1,30.2,29.46,SE,129,13.2,13.2,58,0.00,,OVC,0.00,VWS V14.00,2013-03-06 09:00:00,
2013-03-06 01:05:00,44.2,30.4,29.46,SE,138,10.5,15.4,58,0.00,,OVC,0.00,VWS V14.00,2013-03-06 09:05:00,
2013-03-06 01:10:00,44.1,30.2,29.43,SE,134,11.0,17.9,58,0.00,,OVC,0.00,VWS V14.00,2013-03-06 09:10:00,
2013-03-06 01:15:00,44.1,30.7,29.43,ESE,121,11.0,12.8,59,0.00,,OVC,0.00,VWS V14.00,2013-03-06 09:15:00,
2013-03-06 01:20:00,44.1,30.7,29.43,East,99,12.8,12.8,59,0.00,,OVC,0.00,VWS V14.00,2013-03-06 09:20:00,
2013-03-06 01:25:00,44.2,30.4,29.46,SSE,147,10.5,13.2,58,0.00,,OVC,0.00,VWS V14.00,2013-03-06 09:25:00,
2013-03-06 01:30:00,44.2,30.0,29.46,SW,234,8.7,10.5,57,0.00,,OVC,0.00,VWS V14.00,2013-03-06 09:30:00,
2013-03-06 01:35:00,44.2,30.0,29.46,South,172,8.3,8.3,57,0.00,,OVC,0.00,VWS V14.00,2013-03-06 09:35:00,
2013-03-06 01:40:00,44.8,29.6,29.43,SE,138,12.8,12.8,55,0.00,,OVC,0.00,VWS V14.00,2013-03-06 09:40:00,
2013-03-06 01:45:00,44.8,29.2,29.43,SW,223,8.3,11.4,54,0.00,,OVC,0.00,VWS V14.00,2013-03-06 09:45:00,
2013-03-06 01:50:00,44.6,29.0,29.43,South,172,3.6,9.2,54,0.00,,OVC,0.00,VWS V14.00,2013-03-06 09:50:00,
2013-03-06 01:55:00,44.6,29.0,29.43,SE,142,12.3,17.9,54,0.00,,OVC,0.00,VWS V14.00,2013-03-06 09:55:00,
2013-03-06 02:00:00,44.6,29.0,29.43,SE,125,8.7,11.9,54,0.00,,OVC,0.00,VWS V14.00,2013-03-06 10:00:00,
2013-03-06 02:05:00,44.6,29.0,29.43,SSE,154,10.5,14.5,54,0.00,,OVC,0.00,VWS V14.00,2013-03-06 10:05:00,
2013-03-06 02:10:00,44.2,29.1,29.43,ESE,120,13.2,15.4,55,0.00,,OVC,0.00,VWS V14.00,2013-03-06 10:10:00,
2013-03-06 02:15:00,44.2,29.5,29.43,ESE,114,8.1,8.1,56,0.00,,OVC,0.00,VWS V14.00,2013-03-06 10:15:00,
2013-03-06 02:20:00,44.2,29.5,29.43,ESE,117,12.3,12.3,56,0.00,,OVC,0.00,VWS V14.00,2013-03-06 10:20:00,
2013-03-06 02:25:00,44.4,29.7,29.43,SW,233,5.4,8.1,56,0.00,,OVC,0.00,VWS V14.00,2013-03-06 10:25:00,
2013-03-06 02:30:00,44.2,29.5,29.43,SSW,194,5.8,8.3,56,0.00,,OVC,0.00,VWS V14.00,2013-03-06 10:30:00,
2013-03-06 02:35:00,44.1,29.8,29.43,ESE,115,8.3,8.3,57,0.00,,OVC,0.00,VWS V14.00,2013-03-06 10:35:00,
2013-03-06 02:40:00,43.7,29.9,29.43,SE,133,11.0,17.4,58,0.00,,OVC,0.00,VWS V14.00,2013-03-06 10:40:00,
2013-03-06 02:45:00,43.3,30.4,29.43,SSE,159,11.0,13.2,60,0.00,,OVC,0.00,VWS V14.00,2013-03-06 10:45:00,
2013-03-06 02:50:00,43.3,30.8,29.43,SE,142,11.0,11.0,61,0.00,,OVC,0.00,VWS V14.00,2013-03-06 10:50:00,
2013-03-06 02:55:00,43.2,31.0,29.43,SE,136,12.8,21.9,62,0.00,,OVC,0.00,VWS V14.00,2013-03-06 10:55:00,
2013-03-06 03:00:00,43.3,31.2,29.43,SE,146,13.6,13.6,62,0.00,,OVC,0.00,VWS V14.00,2013-03-06 11:00:00,
2013-03-06 03:05:00,43.3,31.2,29.43,SSW,200,4.9,16.8,62,0.00,,OVC,0.00,VWS V14.00,2013-03-06 11:05:00,
2013-03-06 03:10:00,43.0,31.3,29.43,NE,44,5.8,14.5,63,0.00,,OVC,0.00,VWS V14.00,2013-03-06 11:10:00,
2013-03-06 03:15:00,43.0,31.6,29.43,SE,140,7.6,7.6,64,0.00,,OVC,0.00,VWS V14.00,2013-03-06 11:15:00,
2013-03-06 03:20:00,42.8,31.5,29.43,SSE,167,4.9,5.4,64,0.00,,OVC,0.00,VWS V14.00,2013-03-06 11:20:00,
2013-03-06 03:25:00,43.0,31.3,29.43,South,177,3.6,4.9,63,0.00,,OVC,0.00,VWS V14.00,2013-03-06 11:25:00,
2013-03-06 03:30:00,42.8,31.1,29.43,South,189,3.6,7.6,63,0.00,,OVC,0.00,VWS V14.00,2013-03-06 11:30:00,
2013-03-06 03:35:00,42.4,31.1,29.43,South,175,5.8,5.8,64,0.00,,OVC,0.00,VWS V14.00,2013-03-06 11:35:00,
2013-03-06 03:40:00,42.3,31.0,29.43,South,186,4.9,5.4,64,0.00,,OVC,0.00,VWS V14.00,2013-03-06 11:40:00,
2013-03-06 03:45:00,42.1,31.2,29.43,South,186,2.2,3.6,65,0.00,,OVC,0.00,VWS V14.00,2013-03-06 11:45:00,
2013-03-06 03:50:00,42.1,31.2,29.43,South,178,0.0,0.0,65,0.00,,OVC,0.00,VWS V14.00,2013-03-06 11:50:00,
2013-03-06 03:55:00,42.1,31.2,29.43,SSE,160,0.0,0.0,65,0.00,,OVC,0.00,VWS V14.00,2013-03-06 11:55:00,
2013-03-06 04:00:00,42.1,31.2,29.43,SSE,160,0.0,0.0,65,0.00,,OVC,0.00,VWS V14.00,2013-03-06 12:00:00,
2013-03-06 04:05:00,41.7,31.2,29.43,WNW,297,3.6,3.6,66,0.00,,OVC,0.00,VWS V14.00,2013-03-06 12:05:00,
2013-03-06 04:10:00,41.4,30.9,29.43,North,357,2.7,2.7,66,0.00,,OVC,0.00,VWS V14.00,2013-03-06 12:10:00,
2013-03-06 04:15:00,40.8,31.1,29.43,NE,34,0.0,0.0,68,0.00,,OVC,0.00,VWS V14.00,2013-03-06 12:15:00,
2013-03-06 04:20:00,40.8,31.5,29.43,NE,34,0.0,0.0,69,0.00,,OVC,0.00,VWS V14.00,2013-03-06 12:20:00,
2013-03-06 04:25:00,40.8,31.8,29.46,NNE,33,0.0,0.0,70,0.00,,OVC,0.00,VWS V14.00,2013-03-06 12:25:00,
2013-03-06 04:30:00,41.0,32.0,29.46,NW,311,3.6,3.6,70,0.00,,OVC,0.00,VWS V14.00,2013-03-06 12:30:00,
2013-03-06 04:35:00,41.0,32.3,29.46,NW,312,4.0,4.0,71,0.00,,OVC,0.00,VWS V14.00,2013-03-06 12:35:00,
2013-03-06 04:40:00,41.0,32.3,29.43,WNW,299,0.0,0.0,71,0.00,,OVC,0.00,VWS V14.00,2013-03-06 12:40:00,
2013-03-06 04:45:00,40.8,32.5,29.43,WNW,297,3.6,4.0,72,0.00,,OVC,0.00,VWS V14.00,2013-03-06 12:45:00,
2013-03-06 04:50:00,40.8,32.8,29.43,NNW,337,0.0,0.0,73,0.00,,OVC,0.00,VWS V14.00,2013-03-06 12:50:00,
2013-03-06 04:55:00,40.6,33.0,29.46,NNW,337,0.0,0.0,74,0.00,,OVC,0.00,VWS V14.00,2013-03-06 12:55:00,
2013-03-06 05:00:00,40.5,32.8,29.46,North,2,0.0,0.0,74,0.00,,OVC,0.00,VWS V14.00,2013-03-06 13:00:00,
2013-03-06 05:05:00,40.5,33.2,29.46,North,0,3.6,3.6,75,0.00,,OVC,0.00,VWS V14.00,2013-03-06 13:05:00,
2013-03-06 05:10:00,40.3,33.0,29.46,NNE,15,3.1,3.6,75,0.00,,OVC,0.00,VWS V14.00,2013-03-06 13:10:00,
2013-03-06 05:15:00,40.3,33.3,29.46,NNE,13,0.0,3.1,76,0.00,,OVC,0.00,VWS V14.00,2013-03-06 13:15:00,
2013-03-06 05:20:00,40.3,33.3,29.46,NNE,15,0.0,2.7,76,0.00,,OVC,0.00,VWS V14.00,2013-03-06 13:20:00,
2013-03-06 05:25:00,40.3,33.7,29.46,NNW,343,2.7,3.6,77,0.00,,OVC,0.00,VWS V14.00,2013-03-06 13:25:00,
2013-03-06 05:30:00,40.3,33.7,29.46,NNE,20,3.6,3.6,77,0.00,,OVC,0.00,VWS V14.00,2013-03-06 13:30:00,
2013-03-06 05:35:00,40.3,33.7,29.46,North,0,2.7,2.7,77,0.00,,OVC,0.00,VWS V14.00,2013-03-06 13:35:00,
2013-03-06 05:40:00,40.3,33.7,29.46,North,8,2.2,3.1,77,0.00,,OVC,0.00,VWS V14.00,2013-03-06 13:40:00,
2013-03-06 05:45:00,40.3,33.7,29.46,NE,53,4.0,4.0,77,0.00,,OVC,0.00,VWS V14.00,2013-03-06 13:45:00,
2013-03-06 05:50:00,40.5,33.8,29.46,NE,46,0.0,0.0,77,0.00,,OVC,0.00,VWS V14.00,2013-03-06 13:50:00,
2013-03-06 05:55:00,40.5,33.5,29.46,SSE,168,2.2,2.2,76,0.00,,OVC,0.00,VWS V14.00,2013-03-06 13:55:00,
2013-03-06 06:00:00,40.5,33.5,29.46,SSE,156,4.9,4.9,76,0.00,,OVC,0.00,VWS V14.00,2013-03-06 14:00:00,
2013-03-06 06:05:00,40.6,33.7,29.46,South,191,3.6,3.6,76,0.00,,OVC,0.00,VWS V14.00,2013-03-06 14:05:00,
2013-03-06 06:10:00,40.5,33.5,29.46,South,173,3.6,4.0,76,0.00,,OVC,0.00,VWS V14.00,2013-03-06 14:10:00,
2013-03-06 06:15:00,40.5,33.5,29.46,South,174,2.7,3.1,76,0.00,,OVC,0.00,VWS V14.00,2013-03-06 14:15:00,
2013-03-06 06:20:00,40.5,33.5,29.46,South,179,3.1,4.9,76,0.00,,OVC,0.00,VWS V14.00,2013-03-06 14:20:00,
2013-03-06 06:25:00,40.3,33.3,29.46,SSW,209,3.6,4.0,76,0.00,,OVC,0.00,VWS V14.00,2013-03-06 14:25:00,
2013-03-06 06:30:00,40.1,33.5,29.46,SSW,206,5.8,5.8,77,0.00,,OVC,0.00,VWS V14.00,2013-03-06 14:30:00,
2013-03-06 06:35:00,40.1,33.5,29.46,SSW,205,3.6,3.6,77,0.00,,OVC,0.00,VWS V14.00,2013-03-06 14:35:00,
2013-03-06 06:40:00,40.1,33.5,29.46,SW,214,3.1,3.1,77,0.00,,OVC,0.00,VWS V14.00,2013-03-06 14:40:00,
2013-03-06 06:45:00,40.3,33.7,29.46,SW,214,0.0,0.0,77,0.00,,OVC,0.00,VWS V14.00,2013-03-06 14:45:00,
2013-03-06 06:50:00,40.3,33.7,29.46,WNW,294,0.0,0.0,77,0.00,,OVC,0.00,VWS V14.00,2013-03-06 14:50:00,
2013-03-06 06:55:00,40.1,33.8,29.46,WNW,291,3.6,3.6,78,0.00,,OVC,0.00,VWS V14.00,2013-03-06 14:55:00,
2013-03-06 07:00:00,40.1,33.8,29.46,WNW,291,0.0,0.0,78,0.00,,OVC,0.00,VWS V14.00,2013-03-06 15:00:00,
2013-03-06 07:05:00,40.1,33.8,29.46,WNW,292,0.0,0.0,78,0.00,,OVC,0.00,VWS V14.00,2013-03-06 15:05:00,
2013-03-06 07:10:00,40.3,34.0,29.49,WNW,292,5.4,5.4,78,0.00,,OVC,0.00,VWS V14.00,2013-03-06 15:10:00,
2013-03-06 07:15:00,40.1,33.8,29.49,SSW,202,2.7,2.7,78,0.00,,OVC,0.00,VWS V14.00,2013-03-06 15:15:00,
2013-03-06 07:20:00,39.9,34.0,29.49,SSE,159,0.0,0.0,79,0.00,,OVC,0.00,VWS V14.00,2013-03-06 15:20:00,
2013-03-06 07:25:00,39.9,34.3,29.49,SSW,197,0.0,0.0,80,0.00,,OVC,0.00,VWS V14.00,2013-03-06 15:25:00,
2013-03-06 07:30:00,40.3,34.6,29.49,West,263,0.0,0.0,80,0.00,,OVC,0.00,VWS V14.00,2013-03-06 15:30:00,
2013-03-06 07:35:00,40.3,34.6,29.49,SW,221,0.0,0.0,80,0.00,,OVC,0.00,VWS V14.00,2013-03-06 15:35:00,
2013-03-06 07:40:00,40.3,34.9,29.49,SSW,209,0.0,0.0,81,0.00,,OVC,0.00,VWS V14.00,2013-03-06 15:40:00,
2013-03-06 07:45:00,40.5,35.1,29.49,SSW,209,0.0,0.0,81,0.00,,OVC,0.00,VWS V14.00,2013-03-06 15:45:00,
2013-03-06 07:50:00,40.5,35.1,29.49,SSW,210,0.0,0.0,81,0.00,,OVC,0.00,VWS V14.00,2013-03-06 15:50:00,
2013-03-06 07:55:00,40.5,35.4,29.52,South,169,0.0,2.2,82,0.00,,OVC,0.00,VWS V14.00,2013-03-06 15:55:00,
2013-03-06 08:00:00,40.6,35.6,29.52,West,280,5.8,5.8,82,0.00,,OVC,0.00,VWS V14.00,2013-03-06 16:00:00,
2013-03-06 08:05:00,40.6,35.6,29.52,West,270,2.2,3.1,82,0.00,,OVC,0.00,VWS V14.00,2013-03-06 16:05:00,
2013-03-06 08:10:00,40.8,35.8,29.52,WNW,295,0.0,3.1,82,0.00,,OVC,0.00,VWS V14.00,2013-03-06 16:10:00,
2013-03-06 08:15:00,41.0,35.9,29.52,WNW,293,3.1,3.1,82,0.00,,OVC,0.00,VWS V14.00,2013-03-06 16:15:00,
2013-03-06 08:20:00,41.0,35.9,29.54,West,279,4.0,6.3,82,0.00,,OVC,0.00,VWS V14.00,2013-03-06 16:20:00,
2013-03-06 08:25:00,41.0,35.6,29.54,West,267,0.0,0.0,81,0.00,,OVC,0.00,VWS V14.00,2013-03-06 16:25:00,
2013-03-06 08:30:00,41.0,35.6,29.54,WNW,297,3.6,3.6,81,0.00,,OVC,0.00,VWS V14.00,2013-03-06 16:30:00,
2013-03-06 08:35:00,41.0,35.6,29.54,West,265,2.2,2.7,81,0.00,,OVC,0.00,VWS V14.00,2013-03-06 16:35:00,
2013-03-06 08:40:00,41.2,35.5,29.54,WNW,289,2.7,2.7,80,0.00,,OVC,0.00,VWS V14.00,2013-03-06 16:40:00,
2013-03-06 08:45:00,41.5,36.2,29.54,WNW,300,0.0,0.0,81,0.00,,OVC,0.00,VWS V14.00,2013-03-06 16:45:00,
2013-03-06 08:50:00,41.5,35.8,29.54,SW,235,0.0,0.0,80,0.00,,OVC,0.00,VWS V14.00,2013-03-06 16:50:00,
2013-03-06 08:55:00,41.5,35.8,29.57,SW,235,0.0,0.0,80,0.00,,OVC,0.00,VWS V14.00,2013-03-06 16:55:00,
2013-03-06 09:00:00,41.5,35.5,29.57,SW,235,0.0,0.0,79,0.00,,OVC,0.00,VWS V14.00,2013-03-06 17:00:00,
2013-03-06 09:05:00,41.7,35.7,29.57,SW,235,0.0,0.0,79,0.00,,OVC,0.00,VWS V14.00,2013-03-06 17:05:00,
2013-03-06 09:10:00,41.7,35.4,29.57,SW,235,0.0,0.0,78,0.00,,OVC,0.00,VWS V14.00,2013-03-06 17:10:00,
2013-03-06 09:15:00,42.1,35.7,29.57,SW,235,0.0,0.0,78,0.00,,OVC,0.00,VWS V14.00,2013-03-06 17:15:00,
2013-03-06 09:20:00,42.1,35.7,29.57,SW,235,0.0,0.0,78,0.00,,OVC,0.00,VWS V14.00,2013-03-06 17:20:00,
2013-03-06 09:25:00,42.3,35.9,29.60,West,274,5.8,5.8,78,0.00,,OVC,0.00,VWS V14.00,2013-03-06 17:25:00,
2013-03-06 09:30:00,42.4,35.8,29.60,WNW,294,4.0,4.0,77,0.00,,OVC,0.00,VWS V14.00,2013-03-06 17:30:00,
2013-03-06 09:35:00,42.6,35.9,29.60,WNW,297,3.1,3.1,77,0.00,,OVC,0.00,VWS V14.00,2013-03-06 17:35:00,
2013-03-06 09:40:00,42.8,35.8,29.60,WNW,302,3.1,3.1,76,0.00,,OVC,0.00,VWS V14.00,2013-03-06 17:40:00,
2013-03-06 09:45:00,42.8,35.8,29.60,WNW,299,0.0,0.0,76,0.00,,OVC,0.00,VWS V14.00,2013-03-06 17:45:00,
2013-03-06 09:50:00,43.0,35.6,29.60,WNW,291,0.0,0.0,75,0.00,,OVC,0.00,VWS V14.00,2013-03-06 17:50:00,
2013-03-06 09:55:00,43.3,36.0,29.60,West,272,3.6,4.9,75,0.00,,OVC,0.00,VWS V14.00,2013-03-06 17:55:00,
2013-03-06 10:00:00,43.3,36.0,29.60,NW,312,3.1,3.6,75,0.00,,OVC,0.00,VWS V14.00,2013-03-06 18:00:00,
2013-03-06 10:05:00,43.5,35.8,29.60,NNW,329,0.0,0.0,74,0.00,,OVC,0.00,VWS V14.00,2013-03-06 18:05:00,
2013-03-06 10:10:00,43.3,35.6,29.63,NW,318,0.0,0.0,74,0.00,,OVC,0.00,VWS V14.00,2013-03-06 18:10:00,
2013-03-06 10:15:00,43.5,35.5,29.63,NW,318,0.0,0.0,73,0.00,,OVC,0.00,VWS V14.00,2013-03-06 18:15:00,
2013-03-06 10:20:00,43.2,34.8,29.63,North,5,0.0,0.0,72,0.00,,OVC,0.00,VWS V14.00,2013-03-06 18:20:00,
2013-03-06 10:25:00,43.3,34.9,29.63,North,8,0.0,0.0,72,0.00,,OVC,0.00,VWS V14.00,2013-03-06 18:25:00,
2013-03-06 10:31:00,43.5,35.1,29.63,NNE,32,0.0,0.0,72,0.00,,OVC,0.00,VWS V14.00,2013-03-06 18:31:00,
2013-03-06 10:36:00,43.5,34.8,29.63,North,357,0.0,0.0,71,0.00,,OVC,0.00,VWS V14.00,2013-03-06 18:36:00,
2013-03-06 10:41:00,43.9,35.1,29.63,NE,41,0.0,0.0,71,0.00,,OVC,0.00,VWS V14.00,2013-03-06 18:41:00,
2013-03-06 10:46:00,44.1,35.3,29.63,NE,43,0.0,0.0,71,0.00,,OVC,0.00,VWS V14.00,2013-03-06 18:46:00,
2013-03-06 10:51:00,44.4,35.3,29.66,WNW,283,3.6,3.6,70,0.00,,OVC,0.00,VWS V14.00,2013-03-06 18:51:00,
2013-03-06 10:56:00,45.0,35.4,29.66,South,183,0.0,3.1,69,0.00,,OVC,0.00,VWS V14.00,2013-03-06 18:56:00,
2013-03-06 11:01:00,45.0,34.3,29.66,South,171,0.0,3.1,66,0.00,,OVC,0.00,VWS V14.00,2013-03-06 19:01:00,
2013-03-06 11:06:00,45.1,33.7,29.66,South,184,6.3,8.1,64,0.00,,OVC,0.00,VWS V14.00,2013-03-06 19:06:00,
2013-03-06 11:11:00,45.1,32.5,29.66,SSW,202,4.0,5.8,61,0.00,,OVC,0.00,VWS V14.00,2013-03-06 19:11:00,
2013-03-06 11:16:00,45.3,33.5,29.66,SSW,194,0.0,0.0,63,0.00,,OVC,0.00,VWS V14.00,2013-03-06 19:16:00,
2013-03-06 11:21:00,45.0,32.3,29.66,South,175,3.1,4.0,61,0.00,,OVC,0.00,VWS V14.00,2013-03-06 19:21:00,
2013-03-06 11:26:00,44.6,30.8,29.66,SSE,151,3.6,5.8,58,0.00,,OVC,0.00,VWS V14.00,2013-03-06 19:26:00,
2013-03-06 11:31:00,44.4,29.3,29.66,SSW,200,7.6,7.6,55,0.00,,OVC,0.00,VWS V14.00,2013-03-06 19:31:00,
2013-03-06 11:36:00,44.6,29.5,29.69,SSE,166,0.0,2.7,55,0.00,,OVC,0.00,VWS V14.00,2013-03-06 19:36:00,
2013-03-06 11:41:00,44.4,28.4,29.69,SSE,163,2.7,3.6,53,0.00,,OVC,0.00,VWS V14.00,2013-03-06 19:41:00,
2013-03-06 11:46:00,44.4,27.4,29.69,South,171,5.8,7.2,51,0.00,,OVC,0.00,VWS V14.00,2013-03-06 19:46:00,
2013-03-06 11:51:00,44.8,27.8,29.69,SE,140,3.1,3.6,51,0.00,,OVC,0.00,VWS V14.00,2013-03-06 19:51:00,
2013-03-06 11:56:00,44.6,27.6,29.69,South,180,4.0,4.0,51,0.00,,OVC,0.00,VWS V14.00,2013-03-06 19:56:00,
2013-03-06 12:01:00,44.8,27.3,29.69,South,185,3.1,5.8,50,0.00,,OVC,0.00,VWS V14.00,2013-03-06 20:01:00,
2013-03-06 12:06:00,45.0,27.5,29.69,South,186,3.1,3.1,50,0.00,,OVC,0.00,VWS V14.00,2013-03-06 20:06:00,
2013-03-06 12:11:00,45.1,27.6,29.69,SSE,168,4.0,4.9,50,0.00,,OVC,0.00,VWS V14.00,2013-03-06 20:11:00,
2013-03-06 12:16:00,45.5,28.0,29.69,SSW,207,3.1,3.1,50,0.00,,OVC,0.00,VWS V14.00,2013-03-06 20:16:00,
2013-03-06 12:21:00,46.0,28.5,29.72,South,186,3.6,5.4,50,0.00,,OVC,0.00,VWS V14.00,2013-03-06 20:21:00,
2013-03-06 12:26:00,46.2,28.6,29.72,South,182,0.0,0.0,50,0.00,,OVC,0.00,VWS V14.00,2013-03-06 20:26:00,
2013-03-06 12:31:00,46.6,29.0,29.72,SW,232,0.0,4.0,50,0.00,,OVC,0.00,VWS V14.00,2013-03-06 20:31:00,
2013-03-06 12:36:00,47.1,29.5,29.72,SSW,204,2.2,3.6,50,0.00,,OVC,0.00,VWS V14.00,2013-03-06 20:36:00,
2013-03-06 12:41:00,47.3,29.1,29.72,SW,227,7.6,7.6,49,0.00,,OVC,0.00,VWS V14.00,2013-03-06 20:41:00,
2013-03-06 12:46:00,47.3,28.6,29.72,SSW,194,0.0,3.1,48,0.00,,OVC,0.00,VWS V14.00,2013-03-06 20:46:00,
2013-03-06 12:51:00,47.1,27.9,29.72,South,171,0.0,5.8,47,0.00,,OVC,0.00,VWS V14.00,2013-03-06 20:51:00,
2013-03-06 12:56:00,47.5,28.8,29.69,South,180,4.0,5.4,48,0.00,,OVC,0.00,VWS V14.00,2013-03-06 20:56:00,
2013-03-06 13:01:00,47.5,28.3,29.69,SSE,166,6.3,8.3,47,0.00,,OVC,0.00,VWS V14.00,2013-03-06 21:01:00,
2013-03-06 13:06:00,47.3,27.0,29.72,SSW,204,2.7,4.9,45,0.00,,OVC,0.00,VWS V14.00,2013-03-06 21:06:00,
2013-03-06 13:11:00,47.8,28.6,29.72,SSW,196,5.4,10.5,47,0.00,,OVC,0.00,VWS V14.00,2013-03-06 21:11:00,
2013-03-06 13:16:00,48.6,28.7,29.72,SSW,199,8.7,16.3,46,0.00,,OVC,0.00,VWS V14.00,2013-03-06 21:16:00,
2013-03-06 13:21:00,48.0,27.2,29.72,SSE,156,4.9,4.9,44,0.00,,OVC,0.00,VWS V14.00,2013-03-06 21:21:00,
2013-03-06 13:26:00,48.9,28.5,29.72,SW,214,4.9,6.3,45,0.00,,OVC,0.00,VWS V14.00,2013-03-06 21:26:00,
2013-03-06 13:31:00,48.2,26.8,29.72,SSE,166,3.1,8.1,43,0.00,,OVC,0.00,VWS V14.00,2013-03-06 21:31:00,
2013-03-06 13:36:00,48.4,26.4,29.72,East,94,5.4,8.3,42,0.00,,OVC,0.00,VWS V14.00,2013-03-06 21:36:00,
2013-03-06 13:41:00,48.0,26.6,29.72,SSW,193,4.0,6.3,43,0.00,,OVC,0.00,VWS V14.00,2013-03-06 21:41:00,
2013-03-06 13:46:00,48.7,27.3,29.72,SW,223,2.7,3.6,43,0.00,,OVC,0.00,VWS V14.00,2013-03-06 21:46:00,
2013-03-06 13:51:00,49.3,28.3,29.72,South,169,10.1,10.1,44,0.00,,OVC,0.00,VWS V14.00,2013-03-06 21:51:00,
2013-03-06 13:56:00,48.4,25.8,29.72,South,177,9.6,9.6,41,0.00,,OVC,0.00,VWS V14.00,2013-03-06 21:56:00,
2013-03-06 14:01:00,48.2,26.2,29.72,SW,222,4.0,8.7,42,0.00,,OVC,0.00,VWS V14.00,2013-03-06 22:01:00,
2013-03-06 14:06:00,48.9,26.9,29.72,SSW,196,8.3,8.7,42,0.00,,OVC,0.00,VWS V14.00,2013-03-06 22:06:00,
2013-03-06 14:11:00,48.6,25.4,29.72,SSW,202,5.4,5.4,40,0.00,,OVC,0.00,VWS V14.00,2013-03-06 22:11:00,
2013-03-06 14:16:00,48.7,26.1,29.72,ESE,106,7.2,9.6,41,0.00,,OVC,0.00,VWS V14.00,2013-03-06 22:16:00,
2013-03-06 14:21:00,47.8,24.7,29.72,SE,138,7.2,8.7,40,0.00,,OVC,0.00,VWS V14.00,2013-03-06 22:21:00,
2013-03-06 14:26:00,48.2,25.0,29.72,SSW,203,4.0,4.9,40,0.00,,OVC,0.00,VWS V14.00,2013-03-06 22:26:00,
2013-03-06 14:31:00,49.1,26.4,29.72,SW,223,0.0,2.2,41,0.00,,OVC,0.00,VWS V14.00,2013-03-06 22:31:00,
2013-03-06 14:36:00,49.6,26.9,29.72,WSW,258,3.6,3.6,41,0.00,,OVC,0.00,VWS V14.00,2013-03-06 22:36:00,
2013-03-06 14:41:00,49.5,26.8,29.72,SW,232,2.7,4.0,41,0.00,,OVC,0.00,VWS V14.00,2013-03-06 22:41:00,
2013-03-06 14:46:00,49.8,27.1,29.72,South,170,6.3,6.3,41,0.00,,OVC,0.00,VWS V14.00,2013-03-06 22:46:00,
2013-03-06 14:51:00,49.5,27.3,29.75,South,187,5.4,5.4,42,0.00,,OVC,0.00,VWS V14.00,2013-03-06 22:51:00,
2013-03-06 14:56:00,49.5,27.3,29.75,WSW,237,4.9,5.8,42,0.00,,OVC,0.00,VWS V14.00,2013-03-06 22:56:00,
2013-03-06 15:01:00,49.5,27.3,29.75,WSW,241,5.4,8.3,42,0.00,,OVC,0.00,VWS V14.00,2013-03-06 23:01:00,
2013-03-06 15:06:00,49.3,27.2,29.75,West,271,2.7,3.1,42,0.00,,OVC,0.00,VWS V14.00,2013-03-06 23:06:00,
2013-03-06 15:11:00,49.1,27.0,29.75,South,174,2.7,3.1,42,0.00,,OVC,0.00,VWS V14.00,2013-03-06 23:11:00,
2013-03-06 15:16:00,48.7,26.1,29.75,WSW,254,4.9,8.3,41,0.00,,OVC,0.00,VWS V14.00,2013-03-06 23:16:00,
2013-03-06 15:21:00,48.2,25.6,29.75,South,178,3.1,10.1,41,0.00,,OVC,0.00,VWS V14.00,2013-03-06 23:21:00,
2013-03-06 15:26:00,48.6,26.0,29.75,NW,304,0.0,8.1,41,0.00,,OVC,0.00,VWS V14.00,2013-03-06 23:26:00,
2013-03-06 15:31:00,48.6,26.0,29.75,SSW,204,3.6,3.6,41,0.00,,OVC,0.00,VWS V14.00,2013-03-06 23:31:00,
2013-03-06 15:36:00,48.6,26.0,29.75,South,183,4.0,4.9,41,0.00,,OVC,0.00,VWS V14.00,2013-03-06 23:36:00,
2013-03-06 15:41:00,48.4,25.8,29.75,SSE,155,3.1,5.4,41,0.00,,OVC,0.00,VWS V14.00,2013-03-06 23:41:00,
2013-03-06 15:46:00,48.4,25.8,29.75,South,190,3.6,3.6,41,0.00,,OVC,0.00,VWS V14.00,2013-03-06 23:46:00,
2013-03-06 15:51:00,48.0,26.0,29.75,South,181,2.2,3.1,42,0.00,,OVC,0.00,VWS V14.00,2013-03-06 23:51:00,
2013-03-06 15:56:00,47.5,25.0,29.75,SW,230,5.8,5.8,41,0.00,,OVC,0.00,VWS V14.00,2013-03-06 23:56:00,
2013-03-06 16:01:00,47.3,24.8,29.75,SSW,198,2.7,3.1,41,0.00,,OVC,0.00,VWS V14.00,2013-03-07 00:01:00,
2013-03-06 16:06:00,47.3,24.8,29.75,SW,214,3.6,3.6,41,0.00,,OVC,0.00,VWS V14.00,2013-03-07 00:06:00,
2013-03-06 16:11:00,47.7,25.1,29.75,SSW,195,5.4,6.3,41,0.00,,OVC,0.00,VWS V14.00,2013-03-07 00:11:00,
2013-03-06 16:16:00,47.5,25.0,29.75,South,181,4.9,5.8,41,0.00,,OVC,0.00,VWS V14.00,2013-03-07 00:16:00,
2013-03-06 16:21:00,47.3,24.8,29.75,SSW,196,3.6,3.6,41,0.00,,OVC,0.00,VWS V14.00,2013-03-07 00:21:00,
2013-03-06 16:26:00,47.1,24.6,29.75,SSW,202,3.1,8.1,41,0.00,,OVC,0.00,VWS V14.00,2013-03-07 00:26:00,
2013-03-06 16:31:00,47.3,24.8,29.75,SW,222,3.6,4.9,41,0.00,,OVC,0.00,VWS V14.00,2013-03-07 00:31:00,
2013-03-06 16:36:00,46.9,24.5,29.75,SW,220,5.4,8.1,41,0.00,,OVC,0.00,VWS V14.00,2013-03-07 00:36:00,
2013-03-06 16:41:00,46.9,24.5,29.75,WNW,290,3.6,7.6,41,0.00,,OVC,0.00,VWS V14.00,2013-03-07 00:41:00,
2013-03-06 16:46:00,47.1,25.2,29.75,WSW,241,5.4,7.6,42,0.00,,OVC,0.00,VWS V14.00,2013-03-07 00:46:00,
2013-03-06 16:51:00,47.1,25.2,29.75,WNW,301,8.1,8.1,42,0.00,,OVC,0.00,VWS V14.00,2013-03-07 00:51:00,
2013-03-06 16:56:00,47.1,25.2,29.75,West,281,10.1,10.5,42,0.00,,OVC,0.00,VWS V14.00,2013-03-07 00:56:00,
2013-03-06 17:01:00,46.9,25.1,29.75,WNW,295,5.4,5.8,42,0.00,,OVC,0.00,VWS V14.00,2013-03-07 01:01:00,
2013-03-06 17:06:00,46.6,25.3,29.75,West,276,5.8,7.6,43,0.00,,OVC,0.00,VWS V14.00,2013-03-07 01:06:00,
2013-03-06 17:11:00,46.4,25.1,29.75,NW,313,2.7,4.0,43,0.00,,OVC,0.00,VWS V14.00,2013-03-07 01:11:00,
2013-03-06 17:16:00,46.4,25.1,29.75,WNW,288,7.6,7.6,43,0.00,,OVC,0.00,VWS V14.00,2013-03-07 01:16:00,
2013-03-06 17:21:00,46.0,24.8,29.75,WNW,289,4.9,5.4,43,0.00,,OVC,0.00,VWS V14.00,2013-03-07 01:21:00,
2013-03-06 17:26:00,45.9,25.2,29.75,WNW,294,4.9,6.3,44,0.00,,OVC,0.00,VWS V14.00,2013-03-07 01:26:00,
2013-03-06 17:31:00,45.5,24.9,29.75,NW,306,5.8,6.3,44,0.00,,OVC,0.00,VWS V14.00,2013-03-07 01:31:00,
2013-03-06 17:36:00,45.1,24.5,29.75,West,268,5.8,6.3,44,0.00,,OVC,0.00,VWS V14.00,2013-03-07 01:36:00,
2013-03-06 17:41:00,44.8,24.2,29.75,WNW,297,6.3,6.3,44,0.00,,OVC,0.00,VWS V14.00,2013-03-07 01:41:00,
2013-03-06 17:46:00,44.2,24.3,29.75,NW,313,5.8,6.7,45,0.00,,OVC,0.00,VWS V14.00,2013-03-07 01:46:00,
2013-03-06 17:51:00,44.2,24.3,29.75,WNW,301,3.1,6.7,45,0.00,,OVC,0.00,VWS V14.00,2013-03-07 01:51:00,
2013-03-06 17:56:00,44.1,24.1,29.75,WNW,294,4.0,4.0,45,0.00,,OVC,0.00,VWS V14.00,2013-03-07 01:56:00,
2013-03-06 18:01:00,43.7,23.8,29.75,NW,313,0.0,3.1,45,0.00,,OVC,0.00,VWS V14.00,2013-03-07 02:01:00,
2013-03-06 18:06:00,43.5,23.6,29.75,NNW,327,0.0,0.0,45,0.00,,OVC,0.00,VWS V14.00,2013-03-07 02:06:00,
2013-03-06 18:11:00,43.3,24.0,29.78,NE,47,3.1,4.9,46,0.00,,OVC,0.00,VWS V14.00,2013-03-07 02:11:00,
2013-03-06 18:16:00,43.0,23.6,29.78,North,9,2.7,3.1,46,0.00,,OVC,0.00,VWS V14.00,2013-03-07 02:16:00,
2013-03-06 18:21:00,42.8,23.5,29.78,North,4,3.1,3.1,46,0.00,,OVC,0.00,VWS V14.00,2013-03-07 02:21:00,
2013-03-06 18:26:00,42.6,23.3,29.78,North,5,3.6,3.6,46,0.00,,OVC,0.00,VWS V14.00,2013-03-07 02:26:00,
2013-03-06 18:31:00,42.4,23.1,29.78,NNE,16,2.7,4.0,46,0.00,,OVC,0.00,VWS V14.00,2013-03-07 02:31:00,
2013-03-06 18:36:00,42.4,23.1,29.78,NNE,18,2.7,4.5,46,0.00,,OVC,0.00,VWS V14.00,2013-03-07 02:36:00,
2013-03-06 18:41:00,42.3,23.5,29.78,NNE,22,2.2,3.6,47,0.00,,OVC,0.00,VWS V14.00,2013-03-07 02:41:00,
2013-03-06 18:46:00,42.1,23.3,29.78,NNE,21,0.0,0.0,47,0.00,,OVC,0.00,VWS V14.00,2013-03-07 02:46:00,
2013-03-06 18:51:00,41.9,23.2,29.78,North,357,0.0,3.1,47,0.00,,OVC,0.00,VWS V14.00,2013-03-07 02:51:00,
2013-03-06 18:56:00,41.5,23.3,29.78,NE,43,2.2,2.7,48,0.00,,OVC,0.00,VWS V14.00,2013-03-07 02:56:00,
2013-03-06 19:01:00,41.5,23.3,29.78,North,353,0.0,0.0,48,0.00,,OVC,0.00,VWS V14.00,2013-03-07 03:01:00,
2013-03-06 19:06:00,41.4,23.2,29.78,North,8,0.0,0.0,48,0.00,,OVC,0.00,VWS V14.00,2013-03-07 03:06:00,
2013-03-06 19:11:00,41.4,23.2,29.78,North,2,0.0,0.0,48,0.00,,OVC,0.00,VWS V14.00,2013-03-07 03:11:00,
2013-03-06 19:16:00,41.4,23.6,29.78,NNW,345,0.0,0.0,49,0.00,,OVC,0.00,VWS V14.00,2013-03-07 03:16:00,
2013-03-06 19:21:00,41.2,23.5,29.78,North,357,4.9,4.9,49,0.00,,OVC,0.00,VWS V14.00,2013-03-07 03:21:00,
2013-03-06 19:26:00,41.2,23.5,29.78,NNE,17,2.2,3.1,49,0.00,,OVC,0.00,VWS V14.00,2013-03-07 03:26:00,
2013-03-06 19:31:00,41.2,23.5,29.78,NNE,24,3.1,3.1,49,0.00,,OVC,0.00,VWS V14.00,2013-03-07 03:31:00,
2013-03-06 19:36:00,41.5,23.8,29.78,North,6,0.0,0.0,49,0.00,,OVC,0.00,VWS V14.00,2013-03-07 03:36:00,
2013-03-06 19:41:00,41.5,23.8,29.78,North,6,0.0,0.0,49,0.00,,OVC,0.00,VWS V14.00,2013-03-07 03:41:00,
2013-03-06 19:46:00,41.5,23.8,29.78,NE,35,3.1,3.1,49,0.00,,OVC,0.00,VWS V14.00,2013-03-07 03:46:00,
2013-03-06 19:51:00,41.4,23.6,29.78,East,98,0.0,0.0,49,0.00,,OVC,0.00,VWS V14.00,2013-03-07 03:51:00,
2013-03-06 19:56:00,41.0,23.3,29.81,SSE,161,0.0,0.0,49,0.00,,OVC,0.00,VWS V14.00,2013-03-07 03:56:00,
2013-03-06 20:01:00,41.0,23.8,29.81,SE,130,0.0,0.0,50,0.00,,OVC,0.00,VWS V14.00,2013-03-07 04:01:00,
2013-03-06 20:06:00,41.0,23.8,29.81,SE,140,0.0,0.0,50,0.00,,OVC,0.00,VWS V14.00,2013-03-07 04:06:00,
2013-03-06 20:11:00,40.8,24.1,29.81,SSE,150,0.0,0.0,51,0.00,,OVC,0.00,VWS V14.00,2013-03-07 04:11:00,
2013-03-06 20:16:00,40.6,23.9,29.81,SSW,199,0.0,0.0,51,0.00,,OVC,0.00,VWS V14.00,2013-03-07 04:16:00,
2013-03-06 20:21:00,40.5,23.8,29.81,South,176,3.1,3.1,51,0.00,,OVC,0.00,VWS V14.00,2013-03-07 04:21:00,
2013-03-06 20:26:00,40.5,24.2,29.81,South,188,3.1,4.0,52,0.00,,OVC,0.00,VWS V14.00,2013-03-07 04:26:00,
2013-03-06 20:31:00,40.5,24.2,29.81,South,169,0.0,0.0,52,0.00,,OVC,0.00,VWS V14.00,2013-03-07 04:31:00,
2013-03-06 20:36:00,40.5,24.2,29.81,South,169,0.0,0.0,52,0.00,,OVC,0.00,VWS V14.00,2013-03-07 04:36:00,
2013-03-06 20:41:00,40.3,24.1,29.81,South,169,0.0,0.0,52,0.00,,OVC,0.00,VWS V14.00,2013-03-07 04:41:00,
2013-03-06 20:46:00,40.3,24.5,29.81,South,169,0.0,0.0,53,0.00,,OVC,0.00,VWS V14.00,2013-03-07 04:46:00,
2013-03-06 20:51:00,40.3,24.5,29.81,South,169,0.0,0.0,53,0.00,,OVC,0.00,VWS V14.00,2013-03-07 04:51:00,
2013-03-06 20:56:00,40.3,24.5,29.81,South,169,0.0,0.0,53,0.00,,OVC,0.00,VWS V14.00,2013-03-07 04:56:00,
2013-03-06 21:00:00,40.3,25.0,29.81,South,169,0.0,0.0,54,0.00,,OVC,0.00,VWS V14.00,2013-03-07 05:00:00,
2013-03-06 21:05:00,40.3,25.0,29.81,South,169,0.0,0.0,54,0.00,,OVC,0.00,VWS V14.00,2013-03-07 05:05:00,
2013-03-06 21:10:00,40.1,24.8,29.81,South,169,0.0,0.0,54,0.00,,OVC,0.00,VWS V14.00,2013-03-07 05:10:00,
2013-03-06 21:15:00,40.1,24.8,29.81,South,169,0.0,0.0,54,0.00,,OVC,0.00,VWS V14.00,2013-03-07 05:15:00,
2013-03-06 21:20:00,40.1,25.2,29.81,South,169,0.0,0.0,55,0.00,,OVC,0.00,VWS V14.00,2013-03-07 05:20:00,
2013-03-06 21:25:00,39.9,25.1,29.81,South,169,0.0,0.0,55,0.00,,OVC,0.00,VWS V14.00,2013-03-07 05:25:00,
2013-03-06 21:30:00,40.1,25.2,29.81,South,169,0.0,0.0,55,0.00,,OVC,0.00,VWS V14.00,2013-03-07 05:30:00,
2013-03-06 21:35:00,39.9,25.1,29.81,South,169,0.0,0.0,55,0.00,,OVC,0.00,VWS V14.00,2013-03-07 05:35:00,